Regional Weather Roundup
Issued by NWS

Home | Current Version | Previous Version | Text Only | Print | Product List | Glossary Off
Versions: 1 2 3 4 5 6 7 8 9 10 11 12 13 14 15 16 17 18 19 20 21 22 23 24 25 26 27 28 29 30 31 32 33 34 35 36 37 38 39 40 41 42 43 44 45 46 47 48 49 50

000
ASUS44 KMEG 250810
RWRTN
TENNESSEE HOURLY STATE WEATHER ROUNDUP
NATIONAL WEATHER SERVICE MEMPHIS TN
300 AM CDT SAT OCT 25 2014

TNZ002-004-019-021-049-052-054-088>092-250900-
WEST TENNESSEE

CITY           SKY/WX    TMP DP  RH WIND       PRES   REMARKS
MEMPHIS INTL   CLEAR     57  53  86 CALM      30.08F
NWS MEMPHIS      N/A     54 N/A N/A MISG        N/A
JACKSON        CLEAR     48  45  89 CALM      30.08F
DYERSBURG      PTCLDY    52  43  71 S3        30.08S
UNION CITY     CLEAR     50  48  93 S3        30.05F
PARIS          MOCLDY    50  48  93 CALM      30.07F
HUNTINGDON     PTCLDY    47  46  96 CALM      30.08S
LEXINGTON      CLEAR     45  45 100 CALM      30.08S
SAVANNAH         N/A     45  45 100 CALM      30.10S
$$

TNZ008-025-027-028-033-062-065-066-250900-
NORTH MIDDLE TENNESSEE

CITY           SKY/WX    TMP DP  RH WIND       PRES   REMARKS
NASHVILLE      PTCLDY    47  45  93 S3        30.09S
CLARKSVILLE    FOG       47  46  97 CALM      30.07S VSB 1/2
SMYRNA         FOG       43  43 100 CALM      30.10S VSB 3/4
COOKEVILLE     CLEAR     37  37 100 CALM      30.08R
CROSSVILLE     CLEAR     43  38  82 CALM      30.09F
$$

TNZ061-075-076-078-094-096-097-250900-
SOUTH MIDDLE TENNESSEE

CITY           SKY/WX    TMP DP  RH WIND       PRES   REMARKS
FAYETTEVILLE   CLEAR     45  43  93 MISG      30.09S
TULLAHOMA      CLEAR     41  37  87 CALM      30.09F
WINCHESTER     CLEAR     43  41  93 CALM      30.09F
MCMINNVILLE    CLEAR     41  41 100 CALM      30.08F
COLUMBIA         N/A    N/A N/A N/A CALM      30.08S
SHELBYVILLE    CLEAR     43  43 100 CALM      30.10S
$$

TNZ017-018-042-046-047-250900-
NORTHEAST TENNESSEE

CITY           SKY/WX    TMP DP  RH WIND       PRES   REMARKS
TRI CITIES     CLEAR     37  36  96 CALM      30.09S
ELIZABETHTON   SUNNY     36  36 100 CALM      30.09S FOG
$$

TNZ012-013-036-069-073-074-250900-
CENTRAL EAST TENNESSEE

CITY           SKY/WX    TMP DP  RH WIND       PRES   REMARKS
KNOXVILLE      NOT AVBL
OAK RIDGE      PTCLDY    43  40  89 CALM      30.10S
GATLINBURG     SUNNY     37  37 100 CALM      30.08S
MORRISTOWN     SUNNY     39  39 100 NE3       30.08F
$$

TNZ083-085-099-250900-
SOUTHEAST TENNESSEE

CITY           SKY/WX    TMP DP  RH WIND       PRES   REMARKS
CHATTANOOGA    CLEAR     46  43  89 CALM      30.08S
$$

SKY/WX REPORTED AS FAIR MEANS FEW OR NO CLOUDS BELOW
12 THOUSAND FEET.




USA.gov is the U.S. government's official web portal to all federal, state and local government web resources and services.